[[{"header":{"parameterUnit":"m.s-1","parameterCategory":1,"la1":30.2992,"la2":30.254,"lo1":-89.0895,"lo2":-89.0443,"dy":0.0025,"dx":0.0025,"nx":19,"ny":19,"refTime":"2026-03-19T03:00:00:Z","depth":0,"parameterNumber":2,"parameterNumberName":"U-component_of_WINDS"},"data":[0,0,0,1.7594,1.7595,1.7635,1.7635,1.7694,1.7694,0,0,0,0,0,0,0,0,0,0,0,1.7589,1.7589,1.7594,1.7595,1.7635,1.7635,1.7693,1.7694,0,0,0,0,0,0,0,0,0,0,0,1.7589,1.7589,1.759,1.7595,1.7635,1.7635,1.7693,1.766,0,0,0,0,0,0,0,0,0,0,1.762,1.7622,1.7589,1.759,1.7596,1.7635,1.7635,1.7658,1.7662,1.7679,0,1.7698,0,1.7697,1.7699,1.7699,0,0,0,1.759,1.7619,1.7624,1.759,1.7596,1.7635,1.7616,1.766,1.7665,1.7684,1.7698,1.77,1.7698,1.7699,1.7699,1.7815,1.7816,0,0,1.7588,1.7599,1.7621,1.7627,1.7623,1.7614,1.7617,1.7663,1.7679,1.7699,1.7702,1.7699,1.77,1.77,1.7814,1.7815,0,0,0,1.7585,1.7598,1.7602,1.7625,1.7631,1.7616,1.7619,1.7677,1.7677,1.7702,1.77,1.77,1.7701,1.7813,1.7814,1.7862,0,0,0,1.7583,1.7596,1.7601,1.7608,1.7631,1.7655,1.7631,1.7674,1.7678,1.7699,1.77,1.7701,1.7812,1.7814,1.7859,1.7882,0,0,0,1.7584,1.7596,1.7604,1.7609,1.7626,1.7654,1.7657,1.7674,1.7677,1.7699,1.7702,1.7812,1.7814,1.7856,1.7877,1.7913,0,0,0,1.7588,1.7648,1.7605,1.7672,1.7626,1.7684,1.7656,1.7699,1.7724,1.77,1.7813,1.7814,1.7855,1.7874,1.791,1.7943,1.7958,0,0,1.767,1.7659,1.7696,1.7659,1.7727,1.7677,1.7751,1.7763,1.7755,1.7795,1.7798,1.786,1.7877,1.7912,1.8047,1.8059,0,0,0,1.7726,1.7753,1.7769,1.7792,1.7803,1.7812,1.7811,1.7815,1.7848,1.7779,1.7883,1.7893,1.7913,1.7928,1.7939,1.7953,1.7823,1.7823,1.7822,1.7859,1.7844,1.7904,1.7893,1.7916,1.7913,1.7929,1.7933,1.7913,1.7938,1.7949,1.8032,1.8051,1.8058,1.8074,1.7967,1.7968,1.7968,1.7968,1.7976,1.801,1.7979,1.8026,1.8008,1.8047,1.8045,1.8029,1.8061,1.8024,1.8041,1.7999,1.8073,1.8085,1.7971,1.7971,1.797,1.797,1.797,1.8059,1.8072,1.8075,1.8104,1.8128,1.8115,1.8146,1.813,1.8115,1.8132,1.8139,1.8139,1.8133,1.8137,1.8138,1.8138,1.8138,1.8138,1.8138,1.8143,1.8145,1.8173,1.8186,1.8196,1.8208,1.8203,1.8213,1.8219,1.8205,1.8205,1.8179,1.8084,1.8058,1.8143,1.8142,1.8141,1.8141,1.8141,1.8263,1.8232,1.8276,1.8286,1.8297,1.8319,1.8299,1.8319,1.8324,1.8339,1.831,1.8243,1.8229,1.8221,1.8199,1.8315,1.8315,1.8315,1.8315,1.833,1.8322,1.836,1.8377,1.8392,1.8376,1.8421,1.8417,1.8408,1.8409,1.8391,1.8362,1.8354,1.8345,1.8334,1.8313,1.8455,1.8456,1.8456,1.8401,1.8393,1.8436,1.8425,1.8432,1.8437,1.8479,1.8497,1.8481,1.8461,1.8409,1.8403,1.8356,1.8343,1.832,1.8303,1.8265,0,0]},{"header":{"parameterUnit":"m.s-1","parameterCategory":1,"la1":30.2992,"la2":30.254,"lo1":-89.0895,"lo2":-89.0443,"dy":0.0025,"dx":0.0025,"nx":19,"ny":19,"refTime":"2026-03-19T03:00:00:Z","depth":0,"parameterNumber":3,"parameterNumberName":"V-component_of_WINDS"},"data":[0,0,0,0.8525,0.8525,0.8515,0.8515,0.8507,0.8507,0,0,0,0,0,0,0,0,0,0,0,0.8533,0.8533,0.8525,0.8525,0.8515,0.8515,0.8507,0.8507,0,0,0,0,0,0,0,0,0,0,0,0.8533,0.8533,0.8533,0.8525,0.8515,0.8515,0.8507,0.8512,0,0,0,0,0,0,0,0,0,0,0.8521,0.8534,0.8533,0.8533,0.8525,0.8515,0.8515,0.8512,0.8512,0.8514,0,0.852,0,0.8513,0.8507,0.8507,0,0,0,0.852,0.8535,0.8527,0.8533,0.8525,0.8515,0.8518,0.8512,0.8512,0.8514,0.852,0.8519,0.8513,0.8507,0.8507,0.8538,0.8539,0,0,0.8521,0.8534,0.8528,0.8527,0.8531,0.8518,0.8518,0.8512,0.8518,0.852,0.8519,0.8513,0.8507,0.8507,0.8538,0.8538,0,0,0,0.8526,0.8535,0.8527,0.8528,0.8526,0.8518,0.8517,0.8518,0.8515,0.8519,0.8513,0.8507,0.8507,0.8538,0.8538,0.8568,0,0,0,0.8526,0.8537,0.8527,0.8535,0.8526,0.8522,0.8525,0.8515,0.8514,0.8513,0.8507,0.8507,0.8537,0.8538,0.8566,0.858,0,0,0,0.8532,0.8538,0.8538,0.8536,0.8532,0.8522,0.8518,0.8515,0.8511,0.8507,0.8507,0.8537,0.8538,0.8565,0.8577,0.8591,0,0,0,0.8542,0.8565,0.8539,0.8562,0.8532,0.8541,0.8518,0.8524,0.8524,0.8507,0.8537,0.8538,0.8564,0.8576,0.859,0.8605,0.8613,0,0,0.8579,0.857,0.8583,0.8559,0.8576,0.8542,0.8562,0.8549,0.8537,0.8538,0.8539,0.8567,0.8577,0.8591,0.8652,0.8658,0,0,0,0.8598,0.8608,0.8609,0.861,0.8601,0.8594,0.8577,0.8572,0.8572,0.8541,0.8575,0.8581,0.8588,0.8595,0.86,0.8605,0.8542,0.8542,0.8542,0.8669,0.8651,0.867,0.865,0.8651,0.8633,0.8631,0.862,0.8603,0.8611,0.8611,0.8651,0.8659,0.8663,0.8668,0.8618,0.8618,0.8618,0.8618,0.872,0.8729,0.8704,0.8713,0.8693,0.87,0.8681,0.8668,0.867,0.865,0.8655,0.8634,0.867,0.8674,0.862,0.862,0.862,0.862,0.8619,0.8764,0.8765,0.8758,0.8756,0.8756,0.8735,0.8737,0.8719,0.8702,0.8707,0.8705,0.8704,0.8701,0.8707,0.8708,0.8708,0.8708,0.8708,0.8708,0.8812,0.8803,0.8809,0.88,0.8797,0.879,0.8769,0.8765,0.8756,0.8742,0.8742,0.8722,0.8678,0.8667,0.871,0.871,0.8709,0.8709,0.8709,0.887,0.8853,0.8862,0.8859,0.8845,0.8845,0.8821,0.8813,0.8807,0.8809,0.8787,0.8757,0.8747,0.8743,0.8734,0.8792,0.8792,0.8792,0.8792,0.8907,0.89,0.8903,0.8899,0.8892,0.8871,0.8878,0.8861,0.8841,0.8835,0.8824,0.881,0.8806,0.8798,0.8792,0.8783,0.8853,0.8853,0.8853,0.8941,0.8932,0.8943,0.8924,0.8911,0.8899,0.8905,0.8899,0.8873,0.8855,0.883,0.8827,0.8804,0.8798,0.8781,0.8773,0.8756,0,0]}]]